Weather History for Wrangell, AK

Change the Weather History Date:

Monday, March 4, 2013

  Actual Average Record
Temperature  
Mean Temperature 36 °F -  
Max Temperature 44 °F 39 °F 49 °F (1979)
Min Temperature 28 °F 27 °F 2 °F (1951)
Degree Days  
Heating Degree Days 29    
Moisture  
Dew Point 24 °F    
Average Humidity 65    
Maximum Humidity 93    
Minimum Humidity 34    
Precipitation  
Precipitation 0.00 in - - ()
Sea Level Pressure  
Sea Level Pressure 30.37 in    
Wind  
Wind Speed 5 mph (ESE)    
Max Wind Speed 16 mph    
Max Gust Speed 25 mph    
Visibility 10 miles    
Events      
Averages and records for this station are not official NWS values.
T = Trace of Precipitation, MM = Missing Value Source: NWS Daily Summary

Daily Weather History Graph

Daily Weather History Graph

Search for Another Location

Airport:

Trip Planner

Search our weather history database for the weather conditions in past years. The results will help you decide how hot, cold, wet, or windy it might be!

Date:

Astronomy

Mar. 04, 2013 Rise Set
Actual Time 6:32 AM AKST 5:30 PM AKST
Civil Twilight 5:55 AM AKST 6:08 PM AKST
Nautical Twilight 5:11 AM AKST 6:51 PM AKST
Astronomical Twilight 4:27 AM AKST 7:36 PM AKST
Moon 1:40 AM AKST (3/4) 9:27 AM AKST (3/4)
Length of Visible Light 12h 12m
Length of Day
10h 57m
Waning Gibbous, 50% of the Moon is Illuminated
Mar 4
Waning Gibbous
Mar 4
Last Quarter
Mar 11
New
Mar 19
First Quarter
Mar 27
Full

Hourly Weather History & Observations

Time (AKST) Temp. Windchill Dew Point Humidity Pressure Visibility Wind Dir Wind Speed Gust Speed Precip Events Conditions
12:16 AM 30.2 °F 26.7 °F 26.6 °F 86% 30.44 in 10.0 mi SSE 3.5 mph - N/A   Clear
12:36 AM 30.2 °F 24.3 °F 26.6 °F 86% 30.44 in 10.0 mi SE 5.8 mph - N/A   Partly Cloudy
12:56 AM 30.2 °F - 26.6 °F 86% 30.44 in 10.0 mi Calm Calm - N/A   Scattered Clouds
1:16 AM 30.2 °F 24.3 °F 26.6 °F 86% 30.44 in 10.0 mi South 5.8 mph - N/A   Mostly Cloudy
1:36 AM 30.2 °F 26.7 °F 26.6 °F 86% 30.44 in 10.0 mi SSE 3.5 mph - N/A   Overcast
1:56 AM 30.2 °F - 28.4 °F 93% 30.44 in 10.0 mi Calm Calm - N/A   Overcast
2:16 AM 32.0 °F - 26.6 °F 80% 30.45 in 10.0 mi Calm Calm - N/A   Overcast
2:36 AM 32.0 °F 28.7 °F 28.4 °F 87% 30.45 in 10.0 mi SSW 3.5 mph - N/A   Overcast
2:56 AM 32.0 °F - 28.4 °F 87% 30.45 in 10.0 mi Calm Calm - N/A   Overcast
3:16 AM 32.0 °F - 28.4 °F 87% 30.44 in 10.0 mi Calm Calm - N/A   Overcast
3:36 AM 30.2 °F 26.7 °F 28.4 °F 93% 30.44 in 10.0 mi SSE 3.5 mph - N/A   Overcast
3:56 AM 30.2 °F 25.4 °F 26.6 °F 86% 30.44 in 10.0 mi SE 4.6 mph - N/A   Mostly Cloudy
4:16 AM 30.2 °F 24.3 °F 26.6 °F 86% 30.44 in 10.0 mi SSE 5.8 mph - N/A   Mostly Cloudy
4:36 AM 30.2 °F 25.4 °F 26.6 °F 86% 30.44 in 10.0 mi SSE 4.6 mph - N/A   Mostly Cloudy
4:56 AM 30.2 °F 26.7 °F 24.8 °F 80% 30.43 in 10.0 mi SSE 3.5 mph - N/A   Scattered Clouds
5:16 AM 30.2 °F 26.7 °F 26.6 °F 86% 30.43 in 10.0 mi SE 3.5 mph - N/A   Scattered Clouds
5:36 AM 30.2 °F 26.7 °F 26.6 °F 86% 30.43 in 10.0 mi SSE 3.5 mph - N/A   Mostly Cloudy
5:56 AM 30.2 °F 26.7 °F 26.6 °F 86% 30.43 in 10.0 mi SE 3.5 mph - N/A   Mostly Cloudy
6:16 AM 30.2 °F 26.7 °F 26.6 °F 86% 30.42 in 10.0 mi SSE 3.5 mph - N/A   Mostly Cloudy
6:36 AM 30.2 °F 25.4 °F 26.6 °F 86% 30.42 in 10.0 mi SSE 4.6 mph - N/A   Mostly Cloudy
6:56 AM 30.2 °F - 24.8 °F 80% 30.42 in 10.0 mi Calm Calm - N/A   Mostly Cloudy
7:16 AM 28.4 °F 24.6 °F 24.8 °F 86% 30.42 in 10.0 mi SSE 3.5 mph - N/A   Mostly Cloudy
7:36 AM 30.2 °F 26.7 °F 26.6 °F 86% 30.42 in 10.0 mi ENE 3.5 mph - N/A   Mostly Cloudy
7:56 AM 30.2 °F - 26.6 °F 86% 30.42 in 10.0 mi Calm Calm - N/A   Scattered Clouds
8:16 AM 32.0 °F - 28.4 °F 87% 30.42 in 10.0 mi Calm Calm - N/A   Scattered Clouds
8:36 AM 32.0 °F - 26.6 °F 80% 30.42 in 10.0 mi Calm Calm - N/A   Scattered Clouds
8:56 AM 33.8 °F 30.8 °F 28.4 °F 81% 30.42 in 10.0 mi SE 3.5 mph - N/A   Scattered Clouds
9:16 AM 33.8 °F 28.6 °F 28.4 °F 81% 30.42 in 10.0 mi East 5.8 mph - N/A   Scattered Clouds
9:56 AM 33.8 °F - 30.2 °F 87% 30.41 in 10.0 mi Calm Calm - N/A   Partly Cloudy
10:16 AM 35.6 °F 31.7 °F 28.4 °F 75% 30.41 in 10.0 mi ESE 4.6 mph - N/A   Partly Cloudy
10:36 AM 35.6 °F 30.7 °F 28.4 °F 75% 30.40 in 10.0 mi NW 5.8 mph - N/A   Partly Cloudy
10:56 AM 39.2 °F 35.0 °F 28.4 °F 65% 30.40 in 10.0 mi ENE 5.8 mph - N/A   Clear
11:16 AM 42.8 °F 37.5 °F 24.8 °F 49% 30.40 in 10.0 mi SE 9.2 mph 19.6 mph N/A   Clear
11:36 AM 42.8 °F 36.6 °F 24.8 °F 49% 30.39 in 10.0 mi ENE 11.5 mph 17.3 mph N/A   Clear
11:56 AM 42.8 °F 35.1 °F 21.2 °F 42% 30.37 in 10.0 mi ENE 16.1 mph 25.3 mph N/A   Clear
12:16 PM 42.8 °F 35.4 °F 21.2 °F 42% 30.37 in 10.0 mi NE 15.0 mph 23.0 mph N/A   Clear
12:36 PM 42.8 °F 35.1 °F 21.2 °F 42% 30.37 in 10.0 mi NE 16.1 mph 20.7 mph N/A   Clear
12:56 PM 42.8 °F 35.1 °F 19.4 °F 39% 30.36 in 10.0 mi NE 16.1 mph 23.0 mph N/A   Clear
1:16 PM 42.8 °F 35.4 °F 21.2 °F 42% 30.36 in 10.0 mi NE 15.0 mph 24.2 mph N/A   Clear
1:36 PM 42.8 °F 36.6 °F 17.6 °F 36% 30.36 in 10.0 mi ENE 11.5 mph 17.3 mph N/A   Clear
1:56 PM 42.8 °F 35.8 °F 19.4 °F 39% 30.35 in 10.0 mi NE 13.8 mph - N/A   Clear
2:16 PM 44.6 °F 39.2 °F 17.6 °F 34% 30.35 in 10.0 mi NE 10.4 mph 17.3 mph N/A   Clear
2:36 PM 44.6 °F 38.8 °F 19.4 °F 37% 30.35 in 10.0 mi NE 11.5 mph 16.1 mph N/A   Clear
2:56 PM 42.8 °F 37.5 °F 19.4 °F 39% 30.34 in 10.0 mi NE 9.2 mph - N/A   Clear
3:16 PM 42.8 °F 37.0 °F 19.4 °F 39% 30.33 in 10.0 mi NE 10.4 mph - N/A   Clear
3:36 PM 42.8 °F 37.0 °F 17.6 °F 36% 30.33 in 10.0 mi NE 10.4 mph 18.4 mph N/A   Clear
3:56 PM 42.8 °F 38.0 °F 19.4 °F 39% 30.32 in 10.0 mi NE 8.1 mph - N/A   Clear
4:16 PM 42.8 °F 38.0 °F 19.4 °F 39% 30.32 in 10.0 mi NE 8.1 mph - N/A   Clear
4:36 PM 42.8 °F 40.1 °F 19.4 °F 39% 30.31 in 10.0 mi ENE 4.6 mph - N/A   Clear
4:56 PM 42.8 °F 40.1 °F 15.8 °F 34% 30.31 in 10.0 mi South 4.6 mph - N/A   Clear
5:16 PM 42.8 °F 40.1 °F 15.8 °F 34% 30.30 in 10.0 mi East 4.6 mph - N/A   Clear
5:36 PM 41.0 °F 34.7 °F 15.8 °F 36% 30.29 in 10.0 mi East 10.4 mph - N/A   Clear
5:56 PM 41.0 °F 37.1 °F 19.4 °F 42% 30.29 in 10.0 mi SE 5.8 mph - N/A   Clear
6:16 PM 37.4 °F 31.4 °F 19.4 °F 48% 30.30 in 10.0 mi SE 8.1 mph - N/A   Clear
6:36 PM 37.4 °F 30.8 °F 19.4 °F 48% 30.29 in 10.0 mi ESE 9.2 mph - N/A   Clear
6:56 PM 39.2 °F 33.0 °F 17.6 °F 42% 30.29 in 10.0 mi ESE 9.2 mph - N/A   Clear
7:16 PM 35.6 °F 28.6 °F 21.2 °F 56% 30.29 in 10.0 mi SE 9.2 mph - N/A   Clear
7:36 PM 35.6 °F 27.5 °F 21.2 °F 56% 30.29 in 10.0 mi SE 11.5 mph - N/A   Clear
7:56 PM 35.6 °F 28.6 °F 21.2 °F 56% 30.29 in 10.0 mi SE 9.2 mph - N/A   Clear
8:16 PM 35.6 °F 27.5 °F 21.2 °F 56% 30.28 in 10.0 mi SE 11.5 mph - N/A   Clear
8:36 PM 35.6 °F 28.0 °F 23.0 °F 60% 30.28 in 10.0 mi ESE 10.4 mph - N/A   Clear
8:56 PM 35.6 °F 29.2 °F 24.8 °F 65% 30.27 in 10.0 mi ESE 8.1 mph - N/A   Clear
9:16 PM 33.8 °F 26.4 °F 26.6 °F 75% 30.27 in 10.0 mi ESE 9.2 mph - N/A   Clear
10:36 PM 33.8 °F 27.7 °F 24.8 °F 70% 30.26 in 10.0 mi SSE 6.9 mph - N/A   Clear
10:56 PM 33.8 °F 28.6 °F 24.8 °F 70% 30.26 in 10.0 mi SSE 5.8 mph - N/A   Clear
11:16 PM 32.0 °F 25.6 °F 23.0 °F 69% 30.26 in 10.0 mi SSE 6.9 mph - N/A   Clear
11:36 PM 33.8 °F 27.0 °F 24.8 °F 70% 30.25 in 10.0 mi SE 8.1 mph - N/A   Clear
11:56 PM 33.8 °F 27.7 °F 23.0 °F 65% 30.25 in 10.0 mi SE 6.9 mph - N/A   Clear